Regional Weather Roundup
Issued by NWS

Home | Current Version | Previous Version | Graphics & Text | Print | Product List | Glossary On
Versions: 1 2 3 4 5 6 7 8 9 10 11 12 13 14 15 16 17 18 19 20 21 22 23 24 25 26 27 28 29 30 31 32 33 34 35 36 37 38 39 40 41 42 43 44 45 46 47 48 49 50
000
ASUS44 KMEG 200118
RWRTN

TENNESSEE HOURLY STATE WEATHER ROUNDUP
NATIONAL WEATHER SERVICE MEMPHIS TN
800 PM CDT SUN OCT 19 2014

TNZ002-004-019-021-049-052-054-088>092-200200-
WEST TENNESSEE

CITY           SKY/WX    TMP DP  RH WIND       PRES   REMARKS
MEMPHIS INTL   PTCLDY    59  48  67 CALM      30.11R
NWS MEMPHIS      N/A     53 N/A N/A MISG        N/A
JACKSON        PTCLDY    50  47  89 CALM      30.11S
DYERSBURG      MOCLDY    54  39  58 CALM      30.12S
UNION CITY     CLEAR     54  46  76 CALM      30.10F
PARIS          CLEAR     46  45  93 CALM      30.12S
HUNTINGDON     PTCLDY    49  46  89 CALM      30.12S
LEXINGTON      CLEAR     54  48  82 CALM      30.10F
SAVANNAH       CLEAR     52  52 100 CALM      30.11F
$$

TNZ008-025-027-028-033-062-065-066-200200-
NORTH MIDDLE TENNESSEE

CITY           SKY/WX    TMP DP  RH WIND       PRES   REMARKS
NASHVILLE      MOCLDY    54  47  77 CALM      30.12S
CLARKSVILLE    PTCLDY    52  46  80 CALM      30.11S
SMYRNA         MOCLDY    51  47  86 CALM      30.13S
COOKEVILLE     CLEAR     50  46  87 CALM      30.11F
CROSSVILLE     MOCLDY    52  44  74 CALM      30.13R HAZE
$$

TNZ061-075-076-078-094-096-097-200200-
SOUTH MIDDLE TENNESSEE

CITY           SKY/WX    TMP DP  RH WIND       PRES   REMARKS
FAYETTEVILLE   CLEAR     54  45  71 M         30.12S
TULLAHOMA      CLEAR     48  45  87 CALM      30.13S
WINCHESTER     CLEAR     48  46  93 CALM      30.12S
MCMINNVILLE    CLEAR     50  50 100 CALM      30.12S
COLUMBIA       CLEAR     54  54 100 CALM      30.10S
SHELBYVILLE    CLEAR     52  48  87 CALM      30.13S
$$

TNZ017-018-042-046-047-200200-
NORTHEAST TENNESSEE

CITY           SKY/WX    TMP DP  RH WIND       PRES   REMARKS
TRI CITIES     PTCLDY    45  41  86 CALM      30.13S
ELIZABETHTON   CLEAR     41  39  93 CALM      30.14S
$$

TNZ012-013-036-069-073-074-200200-
CENTRAL EAST TENNESSEE

CITY           SKY/WX    TMP DP  RH WIND       PRES   REMARKS
KNOXVILLE      MOCLDY    52  44  74 CALM      30.10S
OAK RIDGE      MOCLDY    51  46  83 CALM      30.13R
GATLINBURG     CLEAR     48  45  87 CALM      30.11S
MORRISTOWN     CLEAR     50  45  81 CALM      30.12F
$$

TNZ083-085-099-200200-
SOUTHEAST TENNESSEE

CITY           SKY/WX    TMP DP  RH WIND       PRES   REMARKS
CHATTANOOGA    MOCLDY    54  49  83 CALM      30.11R
$$

SKY/WX REPORTED AS FAIR MEANS FEW OR NO CLOUDS BELOW
12 THOUSAND FEET.





USA.gov is the U.S. government's official web portal to all federal, state and local government web resources and services.